Find Starlink 2123

NORAD ID: 47401 Int'l Des: 2021-005 Owner: SPXS Country: US Constellation: starlink operational
LEOCIRCULARSTARLINK_TYPE

当前视图

正在加载3D地球...

关于 Starlink 2123

正在加载描述...

即将过境

Passes for default location (London). Set your location on the main map for personalized predictions.

高度历史

Loading altitude history...

两行轨道根数

1 47401U 21005BE 26146.42021240 .00001566 00000-0 62217-4 0 9998
2 47401 53.1619 35.4276 0001250 85.6531 274.4614 15.31706042295290
Epoch: May 26, 2026 • Age: 9 hours

当前状态

高度 483.9 km
速度 7.62 km/s
星下点 -38.45°S, 175.89°W
发射日期 Jan 20, 2021
运行时间 5.3 years
类型 internet

技术详情

分类 Payload
质量 260.00 kg
干质量 248.00 kg
总质量 260.00 kg
长度 0.20 m
直径 2.80 m
跨度 9.00 m
形状 Box + pan
制造商 SPXS
平台类型 Starlink
阶段状态 In Orbit
所有者/国家 SPXS/US

Most Searched